Location: Asheville, NC
(35.6000°N, 82.5500°W)
Time: 07:40:08
(UTC-04:00)

ISS - Pass Details

Date: 22 March 2019
Orbit: 408 x 411 km, 51.6° (Epoch: 24 March)

Event Time Altitude Azimuth Distance (km) Brightness Sun altitude
Rises 20:43:05 0° 239° (WSW) 2,319 0.8 -12.9°
Reaches altitude 10° 20:45:12 10° 245° (WSW) 1,461 -0.2 -13.3°
Maximum altitude 20:48:23 48° 321° (NW) 538 -2.9 -13.9°
Drops below altitude 10° 20:51:35 10° 38° (NE) 1,467 -1.3 -14.6°
Enters shadow 20:51:40 10° 38° (NE) 1,495 -1.2 -14.6°
